Regional Weather Roundup
Issued by NWS Green Bay, WI

Home | Current Version | Previous Version | Text Only | Print | Product List | Glossary On
Versions: 1 2 3 4 5 6 7 8 9 10 11 12 13 14 15 16 17 18 19 20 21 22 23 24 25 26 27 28 29 30 31 32 33 34 35 36 37 38 39 40 41 42 43 44 45 46 47 48 49 50
000
ASUS43 KGRB 230659
RWRGRB

NORTH-CENTRAL AND NORTHEAST WISCONSIN REGIONAL WEATHER ROUNDUP
NATIONAL WEATHER SERVICE GREEN BAY WI
200 AM CDT WED JUL 23 2014

WIZ005-009-010>012-018-019-230800-
NORTH CENTRAL WISCONSIN

CITY           SKY/WX    TMP DP  RH WIND       PRES   REMARKS
IRONWOOD       NOT AVBL
MANITOWISH WTR NOT AVBL
ARBOR VITAE    NOT AVBL
EAGLE RIVER    NOT AVBL
LAND O LAKES   NOT AVBL
RHINELANDER    CLEAR     55  54  96 CALM      30.17R
PHILLIPS       CLEAR     54  54  99 CALM      30.17S FOG
ANTIGO         NOT AVBL
TOMAHAWK       CLEAR     51  50  95 CALM      30.17S FOG
MERRILL        NOT AVBL
$$

WIZ013-073-230800-
NORTHEAST WISCONSIN

CITY           SKY/WX    TMP DP  RH WIND       PRES   REMARKS
IRON MOUNTAIN  CLEAR     55  52  89 NW5       30.12R
MARINETTE      CLEAR     59  54  82 N3        30.11R
$$

WIZ017-030-035>037-045-230800-
CENTRAL WISCONSIN

CITY           SKY/WX    TMP DP  RH WIND       PRES   REMARKS
MEDFORD        NOT AVBL
WAUSAU         CLEAR     61  57  87 N6        30.14R
MOSINEE        CLEAR     59  57  94 N3        30.16S
MARSHFIELD     CLEAR     61  57  87 N5        30.16R
WISC RAPIDS    CLEAR     64  58  80 NE6       30.16R
STEVENS POINT  NOT AVBL
WAUPACA        CLEAR     62  59  88 CALM      30.14R
SHAWANO        CLEAR     63  56  79 N5        30.14R
CLINTONVILLE   CLEAR     59  54  82 CALM      30.14R
$$

WIZ038-039-048-051-230800-
FOX VALLEY

CITY           SKY/WX    TMP DP  RH WIND       PRES   REMARKS
NWS GREEN BAY  CLEAR     61  56  83 N6        30.12R
APPLETON       NOT AVBL
OSHKOSH        CLEAR     66  56  70 NE10      30.12R
FOND DU LAC    MOCLDY    66  56  70 NE9       30.12R
$$

WIZ022-050-052-230800-
EAST CENTRAL WISCONSIN

CITY           SKY/WX    TMP DP  RH WIND       PRES   REMARKS
STURGEON BAY   CLEAR     63  54  72 N14       30.11R
MANITOWOC      NOT AVBL
SHEBOYGAN      CLEAR     59  55  87 NE3       30.11R
$$

LMZ563-521-522-541>543-230800-
LAKESHORE

STATION/POSITION TIME  TEMP    WIND        PRES    VSBY  WAVE
                       AIR SEA DIR/SP/G                  HT/PER
                 (UTC) (F)     (DEG/KT/KT) (MB)    (MI)  (FT/S)
SHEBOYGAN LKSHOR 0600   58      10/ 14/ 15 1019.1R
KEWAUNEE LKSHORE 0600   57      10/  3/  4 1020.1R
NORTHPORT PIER   0600   63     360/ 18/ 21 1019.0R
N MID LAKE BUOY  0600   57 53  350/ 12/ 16 1017.4R         3/ 5
CHAMBERS ISLAND  0600   63     340/ 11/ 16 1019.3R
MENOMINEE LKSHOR 0600   56     330/  8/  9 1020.2R
$$


USA.gov is the U.S. government's official web portal to all federal, state and local government web resources and services.